Regional Weather Roundup
Issued by NWS Boston, MA

Home | Current Version | Previous Version | Text Only | Print | Product List | Glossary On
Versions: 1 2 3 4 5 6 7 8 9 10 11 12 13 14 15 16 17 18 19 20 21 22 23 24 25 26 27 28 29 30 31 32 33 34 35 36 37 38 39 40 41 42 43 44 45 46 47 48 49 50
502
ASUS41 KBOX 231910
RWRBOX

REGIONAL WEATHER ROUNDUP
NATIONAL WEATHER SERVICE TAUNTON MA
200 PM EST MON JAN 23 2017

NOTE:  "FAIR" INDICATES FEW OR NO CLOUDS BELOW 12,000 FEET WITH NO
SIGNIFICANT WEATHER AND/OR OBSTRUCTIONS TO VISIBILITY.

MAZALL-232000-
EASTERN MASSACHUSETTS

CITY           SKY/WX    TMP DP  RH WIND       PRES   REMARKS
BOSTON         CLOUDY    37  32  82 NE29G39   29.96F WCI  25
BEVERLY        CLOUDY    37  33  85 E12       29.98F WCI  29
LAWRENCE       CLOUDY    35  31  85 NE13G26   30.00F WCI  26
BEDFORD        FLURRIES  36  30  79 E18       29.94F WCI  26
BLUE HILL        N/A     33  30  88 E18G39    29.90F WCI  22
NORWOOD        FLURRIES  38  33  82 NE10G23   29.94F WCI  31
MARSHFIELD     PTSUNNY   37  36  93 E23G31    29.96S WCI  26
PLYMOUTH       MIX PCPN  37  32  82 E18G25    29.93F WCI  27
TAUNTON        LGT RAIN  38  32  79 NE9G18    29.90F WCI  31
NEW BEDFORD    CLOUDY    39  32  76 NE18G28   29.87F WCI  30
$$

MAZALL-232000-
CAPE COD AND THE ISLANDS

CITY           SKY/WX    TMP DP  RH WIND       PRES   REMARKS
FALMOUTH       CLOUDY   N/A N/A N/A MISG      29.89  FOG
HYANNIS        CLOUDY    39  33  79 E17G26    29.87F WCI  30
CHATHAM        CLOUDY    40  33  76 NE20G31   29.91F WCI  30
PROVINCETOWN   LGT RAIN  37  34  89 E22G33    29.95F WCI  26
NANTUCKET      CLOUDY    41  33  73 NE24G39   29.84F WCI  31
MARTHAS VNYRD  CLOUDY    40  34  79 NE23G36   29.85F WCI  30
$$

MAZALL-232000-
CENTRAL AND WESTERN MASSACHUSETTS

CITY           SKY/WX    TMP DP  RH WIND       PRES   REMARKS
WORCESTER      CLOUDY    31  28  89 NE20G30   29.88S WCI  19
FITCHBURG      LGT SNOW  32  29  88 NE7G16    29.96F VSB 3/4 WCI  26
ORANGE         CLOUDY    32  26  78 NE7       29.92F WCI  26
SPRINGFIELD    CLOUDY    36  27  70 E14G21    29.88F WCI  27
WESTFIELD      CLOUDY    36  28  73 NE14G23   29.89F WCI  27
NORTH ADAMS    CLOUDY    33  24  69 E12G26    29.88F WCI  24
PITTSFIELD     CLOUDY    31  24  75 E14G24    29.83F WCI  21
$$

RIZALL-232000-
RHODE ISLAND

CITY           SKY/WX    TMP DP  RH WIND       PRES   REMARKS
PROVIDENCE     LGT RAIN  38  32  79 NE20G28   29.89F WCI  28
NEWPORT        CLOUDY    39  32  76 NE14G26   29.86F WCI  31
SMITHFIELD     LGT RAIN  35  31  85 E16G26    29.87  WCI  25
WESTERLY       CLOUDY    39  29  67 NE17G28   29.84F WCI  30
$$

CTZALL-232000-
CONNECTICUT

CITY           SKY/WX    TMP DP  RH WIND       PRES   REMARKS
BRADLEY INTL   CLOUDY    38  30  73 NE15      29.88F WCI  29
HARTFORD       CLOUDY    40  28  62 E18G28    29.85F WCI  31
BRIDGEPORT     CLOUDY    42  30  62 NE25G36   29.79F
DANBURY        CLOUDY    38  29  70 NE17G26   29.77F WCI  28
GROTON         CLOUDY    40  30  67 NE23G31   29.81F WCI  30
NEW HAVEN      CLOUDY    40  29  64 NE20G30   29.79F WCI  30
CHESTER        CLOUDY    39  28  65 NE17G28   29.78F WCI  30
MERIDEN        CLOUDY    42  28  57 NE13G22   29.81F
WILLIMANTIC    CLOUDY    39  31  72 NE20      29.87S WCI  29
OXFORD         CLOUDY    37  27  65 E9G26     29.78F WCI  31
$$

MEZ002-015-021-024-NHZ003-005-008-011-012-014-VTZ005-008-232000-
NORTHERN NEW ENGLAND

CITY           SKY/WX    TMP DP  RH WIND       PRES   REMARKS
PORTLAND ME    CLOUDY    31  23  72 NE14      30.08F WCI  21
BANGOR ME      CLOUDY    32  20  61 N9        30.15R WCI  24
CONCORD NH     CLOUDY    32  23  69 NE10G21   30.01F WCI  24
MANCHESTER NH  NOT AVBL
NASHUA NH      NOT AVBL
PORTSMOUTH NH  LGT SNOW  32  28  86 NE17G24   30.01F VSB 3/4 WCI  21
JAFFREY NH     NOT AVBL
KEENE NH       NOT AVBL
BURLINGTON VT  CLOUDY    37  23  56 SE12      29.98F WCI  29
MT. WASHINGTON CLOUDY    16   5  62 E48G54      N/A  WCI  -8
$$

NYZ052-076-232000-
EASTERN NEW YORK

CITY           SKY/WX    TMP DP  RH WIND       PRES   REMARKS
ALBANY         CLOUDY    38  24  57 NE14      29.90F WCI  30
NEW YORK CITY  CLOUDY    42  31  64 NE32G43   29.71F WCI  31
$$

ANZALL-232000-
MARINE OBSERVATIONS

STATION/POSITION TIME  TEMP    WIND        PRES    VSBY  WAVE
                       AIR SEA DIR/SP/G                  HT/PER
                 (UTC) (F)     (DEG/KT/KT) (MB)    (MI)  (FT/S)
BOSTON BUOY      1750   38 44   60/ 23/ 29 1014.8          9/ 8
BUZZARDS BAY     1800   38      60/ 31/ 37 1011.2F
NANTUCKET SOUND  1850      44   60/ 27/ 33 1010.7F         5/ 5
MASS BAY-STELLWA 1804   38 44   70/ 23/ 29 1015.3F  1 7/8
ISLE OF SHOALS   1800   33      40/ 25/ 29 1016.0R
S OF BLOCK IS    1855      47                N/A          11/ 8
$$

......................KEY.........................
  SKY/WX - SKY CONDITION/PRESENT WEATHER
  TMP    - TEMPERATURE IN FAHRENHEIT
  DWPT   - DEWPOINT IN FAHRENHEIT
  RH     - RELATIVE HUMIDITY IN PERCENT
  WIND   - DIRECTION AND SPEED IN MPH
  PRES   - MEAN SEA LEVEL PRESSURE IN INCHES OF HG
  WCI    - WIND CHILL INDEX
  VSB    - VISIBILITY IN MILES
  HX     - HEAT INDEX
  TC     - TEMPERATURE IN CELSIUS
  VRB    - VARIABLE WIND DIRECTION
  N/A    - NOT AVAILABLE




USA.gov is the U.S. government's official web portal to all federal, state and local government web resources and services.